ARIANE 5 R/B, 43176

Orbit data source: Space-Track

ARIANE 5 R/B, 43176 is space debris in HEO originally from a launch on Thu, 25 Jan 2018 UTC launched from the French Guiana (FRGUI). Debris objects in space refer to the collection of defunct objects orbiting the Earth. Examples of debris include non-operational satellites, rocket bodies, and fragments generated from explosions, collisions, or faulty payload assembly.

Loading next visibility...
Identifier
43176, 2018-012C
Orbit
HEO
Country
Flag of FRFR
Related business
Manufacturer
ArianeGroup
Mission
Spacecraft
Bus & Motor
ESC-A, Unknown motor
Mass
~5,000 kg wet, ~5,000 kg dry
Launch date (UTC)
2018-01-25 (8 years ago)
Launch vehicle
Unknown
Launch site
French Guiana (FRGUI)
Object type
Payload
Rocket body
Debris
Shape & HBR
Cyl + 1 Nozzle, 3.5 m
Radar Cross Section
41.627 m², Large (>1 m²)

Expand to show TLE details & history
Last TLE update: 2 days ago

TLE from 2 days ago
0 ARIANE 5 R/B
1 43176U 18012C   25260.40353377  .00001293  00000-0  33406-3 0  9994
2 43176  21.7618  60.9320 7488258  15.0566 358.5206  2.02494955 53763
Epoch: 2025-09-17T09:41Z
TLE epoch observation values (Epoch: 2025-09-17T09:41:05.317Z)
Latitude
0.00113°
Longitude
-80.93257°
Altitude
377.736 km
Speed
10.143 km/s
True Right ascension
04h 03m 40s
True Declination
0° 00' 04"
Sunlit
Object was in full shadow at epoch
Visualization orbit readout
Latitude
Unknown
Longitude
Unknown
Altitude
Unknown
Speed
Unknown
Apparent Right ascension
Unknown
Apparent Declination
Unknown
Sunlit
N/A
Visualization observer readout
Local Sidereal Time
15:13:57
Azimuth
Unknown
Elevation
Unknown
Doppler factor
Unknown
Orbital elements
Apogee altitude
39,783.451 km
Perigee altitude
251.797 km
Semi-major axis
26,395.761 km
Eccentricity
0.74883
Inclination
21.7618°
RAAN
60.932°
Arg. of periapsis
15.0566°
True anomaly
344.61825°
Mean anomaly
358.5206°
Eccentric anomaly
354.1405°
Mean motion
0.50611 °/min
Orbital period
711.31 mins
BSTAR
0.00033406
Loading maneuver chart data...
Computing Atmospheric mass density...
Loading historical data...
Loading historical data...
Loading historical data...
Loading historical data...
Loading historical data...
Loading historical data...
Loading historical data...
Other satellites on launch #12 in the year 2018 (2018-01-25 UTC)

Documentation

Showing up to 5 results
|